TimeCST,TemperatureF,Dew PointF,Humidity,Sea Level PressureIn,VisibilityMPH,Wind Direction,Wind SpeedMPH,Gust SpeedMPH,PrecipitationIn,Events,Conditions,WindDirDegrees,DateUTC
12:15 AM,72.0,68.5,89,29.82,7.0,SE,6.9,-,N/A,,Mostly Cloudy,140,2012-12-09 06:15:00
12:35 AM,72.1,68.9,89,29.82,7.0,SSE,8.1,-,N/A,,Overcast,150,2012-12-09 06:35:00
1:15 AM,72.1,68.9,89,29.81,7.0,SE,8.1,-,N/A,,Overcast,140,2012-12-09 07:15:00
1:35 AM,72.0,69.1,91,29.81,7.0,SE,5.8,-,N/A,,Overcast,140,2012-12-09 07:35:00
1:55 AM,72.0,69.3,91,29.80,7.0,SSE,8.1,-,N/A,,Overcast,150,2012-12-09 07:55:00
2:15 AM,72.0,69.4,92,29.80,5.0,SE,9.2,-,N/A,,Overcast,140,2012-12-09 08:15:00
2:35 AM,71.8,69.8,93,29.79,5.0,SE,6.9,-,N/A,,Overcast,140,2012-12-09 08:35:00
2:55 AM,71.8,69.8,93,29.79,5.0,SSE,10.4,-,N/A,,Overcast,150,2012-12-09 08:55:00
3:15 AM,71.8,69.8,93,29.79,5.0,SSE,9.2,-,N/A,,Overcast,150,2012-12-09 09:15:00
3:35 AM,71.8,70.0,94,29.80,5.0,SSE,9.2,-,N/A,,Overcast,150,2012-12-09 09:35:00
3:55 AM,71.8,70.0,94,29.80,5.0,SSE,6.9,-,N/A,,Overcast,150,2012-12-09 09:55:00
4:15 AM,71.6,70.2,95,29.81,5.0,South,6.9,-,N/A,,Overcast,170,2012-12-09 10:15:00
4:55 AM,71.2,70.0,96,29.81,4.0,SSE,3.5,-,N/A,,Overcast,160,2012-12-09 10:55:00
5:15 AM,71.2,70.0,96,29.81,4.0,SSE,3.5,-,N/A,,Overcast,160,2012-12-09 11:15:00
5:35 AM,71.1,70.0,96,29.81,4.0,SSE,4.6,-,N/A,,Overcast,150,2012-12-09 11:35:00
5:55 AM,70.9,70.0,97,29.82,3.0,SSE,4.6,-,N/A,,Overcast,160,2012-12-09 11:55:00
6:15 AM,70.7,69.8,97,29.82,3.0,SE,4.6,-,N/A,,Overcast,140,2012-12-09 12:15:00
6:35 AM,70.7,69.8,97,29.82,3.0,SSE,3.5,-,N/A,,Overcast,150,2012-12-09 12:35:00
6:55 AM,70.2,69.8,99,29.83,2.5,Calm,Calm,-,N/A,,Overcast,0,2012-12-09 12:55:00
7:15 AM,69.8,69.4,99,29.84,2.5,Calm,Calm,-,N/A,,Overcast,0,2012-12-09 13:15:00
7:35 AM,69.1,68.9,99,29.84,1.2,ESE,3.5,-,N/A,,Mostly Cloudy,110,2012-12-09 13:35:00
7:55 AM,69.8,69.4,99,29.85,1.2,ESE,3.5,-,N/A,,Mostly Cloudy,120,2012-12-09 13:55:00
8:35 AM,70.7,70.3,99,29.87,1.5,Calm,Calm,-,N/A,,Overcast,0,2012-12-09 14:35:00
8:55 AM,71.2,70.5,98,29.87,2.0,SSE,4.6,-,N/A,,Overcast,150,2012-12-09 14:55:00
9:35 AM,74.5,69.1,83,29.89,4.0,SE,9.2,-,N/A,,Haze,140,2012-12-09 15:35:00
9:55 AM,75.0,68.5,80,29.89,5.0,SE,4.6,-,N/A,,Haze,140,2012-12-09 15:55:00
10:15 AM,76.1,68.4,77,29.89,5.0,SSE,6.9,-,N/A,,Haze,150,2012-12-09 16:15:00
10:35 AM,77.7,67.6,71,29.89,5.0,SSE,9.2,-,N/A,,Haze,150,2012-12-09 16:35:00
10:55 AM,77.2,67.6,72,29.87,5.0,SE,9.2,-,N/A,,Haze,130,2012-12-09 16:55:00
11:15 AM,77.2,67.6,72,29.87,5.0,SSE,6.9,-,N/A,,Haze,160,2012-12-09 17:15:00
11:35 AM,77.9,67.3,70,29.86,7.0,South,8.1,-,N/A,,Clear,170,2012-12-09 17:35:00
11:55 AM,77.9,66.9,69,29.85,7.0,SSE,8.1,-,N/A,,Scattered Clouds,150,2012-12-09 17:55:00
12:15 PM,78.3,66.9,68,29.84,7.0,SE,6.9,-,N/A,,Scattered Clouds,140,2012-12-09 18:15:00
12:35 PM,77.9,67.1,69,29.83,7.0,SE,8.1,-,N/A,,Scattered Clouds,140,2012-12-09 18:35:00
12:55 PM,79.0,66.9,66,29.81,7.0,SSE,6.9,-,N/A,,Clear,150,2012-12-09 18:55:00
1:15 PM,80.2,66.7,63,29.81,7.0,SE,4.6,-,N/A,,Clear,130,2012-12-09 19:15:00
1:35 PM,78.8,66.4,66,29.80,7.0,SSE,3.5,-,N/A,,Clear,150,2012-12-09 19:35:00
1:55 PM,79.7,66.7,64,29.79,7.0,SSE,4.6,-,N/A,,Clear,160,2012-12-09 19:55:00
2:15 PM,79.9,66.4,63,29.77,7.0,ESE,6.9,-,N/A,,Clear,110,2012-12-09 20:15:00
2:35 PM,80.8,65.8,60,29.77,7.0,SE,4.6,-,N/A,,Clear,130,2012-12-09 20:35:00
2:55 PM,80.8,65.7,60,29.77,7.0,SE,8.1,-,N/A,,Clear,140,2012-12-09 20:55:00
3:15 PM,79.7,65.7,62,29.77,7.0,SSE,5.8,-,N/A,,Clear,150,2012-12-09 21:15:00
3:35 PM,79.5,65.5,62,29.77,7.0,South,5.8,-,N/A,,Clear,180,2012-12-09 21:35:00
3:55 PM,79.5,66.0,63,29.77,7.0,SW,4.6,-,N/A,,Clear,220,2012-12-09 21:55:00
4:15 PM,79.0,65.5,63,29.77,7.0,SSW,5.8,-,N/A,,Clear,210,2012-12-09 22:15:00
4:35 PM,78.4,65.8,65,29.76,7.0,South,5.8,-,N/A,,Clear,170,2012-12-09 22:35:00
4:55 PM,78.1,65.8,66,29.76,7.0,South,3.5,-,N/A,,Clear,180,2012-12-09 22:55:00
5:15 PM,77.9,65.7,66,29.76,7.0,SSW,3.5,-,N/A,,Clear,210,2012-12-09 23:15:00
5:35 PM,77.2,65.7,67,29.76,7.0,Calm,Calm,-,N/A,,Clear,0,2012-12-09 23:35:00
5:55 PM,75.6,65.7,71,29.77,7.0,South,3.5,-,N/A,,Clear,180,2012-12-09 23:55:00
6:15 PM,75.2,65.5,72,29.77,7.0,Calm,Calm,-,N/A,,Clear,0,2012-12-10 00:15:00
7:15 PM,71.2,65.1,81,29.78,7.0,Calm,Calm,-,N/A,,Clear,0,2012-12-10 01:15:00
7:35 PM,70.9,64.8,81,29.79,7.0,Calm,Calm,-,N/A,,Clear,0,2012-12-10 01:35:00
7:55 PM,70.3,64.8,82,29.79,7.0,Calm,Calm,-,N/A,,Clear,0,2012-12-10 01:55:00
8:35 PM,70.0,64.4,82,29.80,7.0,West,3.5,-,N/A,,Clear,260,2012-12-10 02:35:00
8:55 PM,69.4,64.4,84,29.79,7.0,Calm,Calm,-,N/A,,Clear,0,2012-12-10 02:55:00
9:15 PM,69.1,64.4,85,29.80,7.0,Calm,Calm,-,N/A,,Clear,0,2012-12-10 03:15:00
9:35 PM,69.1,64.4,85,29.80,7.0,Calm,Calm,-,N/A,,Clear,0,2012-12-10 03:35:00
9:55 PM,68.0,63.9,87,29.80,5.0,Calm,Calm,-,N/A,,Clear,0,2012-12-10 03:55:00
10:15 PM,66.7,63.5,89,29.81,5.0,Calm,Calm,-,N/A,,Clear,0,2012-12-10 04:15:00
10:35 PM,66.2,63.7,92,29.81,4.0,Calm,Calm,-,N/A,,Clear,0,2012-12-10 04:35:00
10:55 PM,63.9,62.6,96,29.80,3.0,ESE,5.8,-,N/A,,Clear,120,2012-12-10 04:55:00
11:15 PM,65.3,64.4,97,29.81,4.0,ESE,3.5,-,N/A,,Clear,110,2012-12-10 05:15:00
11:35 PM,63.3,62.6,97,29.80,2.5,Calm,Calm,-,N/A,,Clear,0,2012-12-10 05:35:00
11:55 PM,61.9,61.3,98,29.80,2.5,Calm,Calm,-,N/A,,Clear,0,2012-12-10 05:55:00